User: anonymous   Login
Location: Mentone
(34.5413°N, 85.5351°W)
Time: 04:07:18
(UTC-05:00)
Language:

Cosmos 2150 Rocket - Orbit

View from above orbital plane
View from above orbital plane
View from above satellite
View from above satellite

Ground track
Ground track

The orbit data is extracted from the following two-line orbital elements,

1 21419U 91041B   17083.96935631 +.00000164 +00000-0 +67722-4 0  9992
2 21419 074.0380 093.5796 0040146 039.8386 320.5700 14.33854146348137
Epoch (UTC): 24 March 2017 23:15:52
Eccentricity: 0.0040146
inclination: 74.0380°
perigee height: 750 km
apogee height: 807 km
right ascension of ascending node: 93.5796°
argument of perigee: 39.8386°
revolutions per day: 14.33854146
mean anomaly at epoch: 320.5700°
orbit number at epoch: 34813

The dashed part of the orbit path shows where the satellite is in the earth's shadow,  

DLR